Temperature
6 6 6 6 7 7 7 7 7 7 7 7 7 7 7 7 7 7 7 7 7 7 7 7 7 7 7 7 7 7 7 7 7 7 7 7 8 8 8 8 8 8 8
5 5 6 6 6 6 6 6 6 6 6 6 6 7 6 6 7 7 7 7 6 6 6 6 7 7 6 6 6 6 6 6 6 6 6 6 7 7 7 8 8 7 7
5 5 5 5 5 6 6 6 6 6 6 6 6 6 6 6 6 6 6 6 6 6 6 6 6 6 6 6 6 6 6 6 6 5 5 5 6 6 6 7 7 7 7
4 4 4 5 5 5 5 5 5 5 5 5 5 5 5 5 5 5 5 5 5 6 6 5 5 5 5 5 5 5 5 5 5 5 5 5 5 5 5 5 6 6 6
3 3 4 4 4 5 5 5 5 5 5 4 4 4 4 4 4 5 5 5 5 5 5 5 5 5 5 5 5 5 5 4 4 4 4 4 4 4 4 4 5 5 5
3 3 3 4 4 4 4 4 4 4 4 4 4 4 4 4 4 4 4 4 4 4 5 4 4 4 4 4 4 4 4 4 4 4 4 4 4 4 4 4 4 4 5
3 3 3 3 3 3 4 4 4 4 4 3 3 3 3 3 3 3 3 3 4 4 4 4 4 4 4 4 4 4 4 4 4 3 3 3 4 4 4 4 4 3 4
2 2 2 2 3 3 3 3 3 3 3 3 3 3 3 3 3 3 3 3 3 3 3 3 3 4 4 4 3 3 3 3 3 3 3 3 3 3 3 3 3 3 3
2 2 2 2 2 2 2 2 3 2 3 3 2 2 2 2 2 2 2 2 3 3 3 3 3 3 3 3 3 3 3 3 3 3 3 3 3 3 3 3 3 3 3
2 2 2 2 2 2 2 2 2 2 2 2 2 2 2 2 2 2 2 2 2 2 2 3 3 2 3 3 2 2 2 2 2 2 2 2 2 2 2 2 2 2 2
2 1 1 1 1 1 1 1 1 1 1 1 1 1 1 2 2 2 2 2 2 2 2 2 2 2 2 2 2 2 2 2 2 2 2 2 2 1 2 2 2 2 2
1 1 1 1 1 1 1 1 1 1 1 1 1 1 1 1 1 1 1 2 2 2 2 2 2 1 1 1 1 1 1 1 1 1 1 1 1 1 1 1 1 2 2
1 1 0 0 0 0 0 0 0 0 0 0 0 1 1 1 1 1 1 1 1 1 1 1 1 1 1 1 1 1 1 1 1 1 1 1 1 1 1 1 1 1 1
0 0 0 -0 -0 0 0 0 -0 -0 -0 -0 0 0 0 0 0 0 0 1 1 1 1 1 1 1 1 1 1 0 0 0 0 0 0 0 0 -0 0 0 0 1 1
0 0 -0 -1 -0 -0 -0 -0 -0 -0 -0 -1 -0 -0 -0 -0 -0 -0 -0 0 0 0 0 0 0 0 0 0 0 -0 -0 -0 -0 -0 -0 -0 -0 -0 -0 -0 0 0 0
-0 -0 -1 -1 -1 -0 -0 -1 -1 -1 -1 -1 -1 -1 -1 -1 -1 -1 -1 -1 -0 -0 -0 -0 -0 -0 -0 -0 -0 -1 -1 -1 -1 -1 -1 -1 -1 -1 -0 -0 -0 -0 -0
-1 -1 -1 -1 -1 -1 -1 -1 -1 -1 -1 -1 -1 -1 -1 -1 -1 -1 -1 -1 -1 -1 -1 -1 -1 -1 -1 -1 -1 -1 -1 -1 -1 -1 -1 -1 -1 -1 -1 -1 -1 -0 -0
-1 -1 -1 -1 -1 -1 -1 -1 -1 -1 -1 -1 -2 -2 -2 -2 -2 -2 -2 -2 -2 -1 -1 -1 -1 -1 -1 -1 -1 -1 -2 -2 -2 -2 -1 -1 -1 -1 -1 -1 -1 -1 -1
-1 -1 -1 -1 -1 -1 -1 -2 -2 -2 -2 -2 -2 -2 -2 -2 -2 -2 -2 -2 -2 -2 -2 -2 -2 -2 -2 -2 -2 -2 -2 -2 -2 -2 -2 -2 -2 -1 -2 -2 -1 -1 -1
-1 -1 -1 -1 -1 -2 -2 -2 -2 -2 -2 -2 -2 -2 -2 -3 -3 -3 -3 -3 -2 -2 -2 -2 -2 -2 -2 -2 -2 -2 -3 -3 -3 -3 -2 -2 -2 -2 -2 -2 -2 -2 -2
-1 -2 -2 -2 -2 -2 -2 -2 -2 -2 -2 -2 -2 -3 -3 -3 -3 -3 -3 -3 -3 -3 -3 -3 -3 -3 -3 -3 -3 -3 -3 -3 -3 -3 -2 -2 -2 -2 -2 -2 -2 -2 -2
-2 -2 -2 -2 -2 -2 -2 -3 -3 -3 -3 -3 -3 -3 -3 -3 -3 -3 -3 -3 -3 -3 -4 -4 -3 -3 -3 -3 -3 -3 -3 -3 -3 -3 -3 -3 -2 -2 -2 -2 -2 -2 -2
-2 -2 -2 -2 -2 -2 -3 -3 -3 -3 -3 -3 -3 -3 -3 -4 -4 -4 -4 -4 -4 -4 -4 -4 -4 -4 -4 -4 -4 -3 -3 -3 -3 -3 -3 -3 -3 -3 -2 -2 -2 -2 -3
-2 -3 -3 -3 -3 -3 -3 -3 -3 -3 -3 -4 -4 -4 -4 -4 -4 -4 -4 -4 -4 -4 -4 -4 -4 -4 -4 -4 -4 -4 -4 -3 -3 -3 -3 -3 -3 -3 -3 -3 -3 -3 -3
-3 -3 -3 -3 -3 -3 -3 -3 -4 -4 -4 -4 -4 -4 -4 -4 -4 -4 -4 -4 -4 -5 -5 -5 -5 -5 -5 -4 -4 -4 -4 -4 -4 -3 -3 -3 -3 -3 -3 -3 -3 -3 -3
-3 -3 -3 -3 -3 -3 -4 -4 -4 -4 -4 -4 -4 -4 -5 -5 -4 -4 -4 -4 -4 -4 -4 -5 -5 -4 -4 -4 -4 -4 -4 -4 -4 -3 -3 -4 -4 -4 -4 -4 -4 -4 -4
Wind_Speed
2 1 1 1 1 1 1 1 2 2 2 1 1 2 2 2 2 3 3 3 3 3 3 3 3 3 4 4 5 5 5 5 4 5 6 6 7 7 6 6 6 6 7
2 1 1 1 1 1 1 2 2 2 2 2 2 2 3 3 3 3 3 3 3 3 3 3 3 3 4 5 5 4 4 4 4 4 4 4 5 5 5 6 6 7 6
3 2 2 2 2 2 2 2 3 3 3 3 2 2 2 2 3 3 3 4 4 4 4 4 4 4 4 5 5 5 6 5 5 5 4 4 5 5 4 6 6 6 6
2 3 3 3 2 3 3 3 3 3 3 2 3 3 3 3 4 4 4 4 4 4 4 5 5 4 4 5 5 6 6 7 6 5 5 6 5 5 4 4 5 6 7
2 3 3 3 3 2 3 3 2 3 3 3 3 4 4 4 4 4 4 5 4 4 4 5 5 5 5 5 6 5 6 6 6 5 5 5 6 8 6 7 6 6 6
2 2 3 2 2 3 2 2 2 3 3 3 4 4 4 4 5 5 4 4 4 4 5 5 5 5 5 5 6 6 7 6 7 6 6 6 5 5 6 7 8 7 7
2 2 3 3 3 3 3 3 3 3 3 4 4 4 5 5 6 6 5 5 4 4 5 5 5 5 5 5 6 6 6 7 7 7 6 6 7 6 6 7 7 8 8
2 2 3 3 3 3 3 3 4 4 4 4 4 5 5 4 5 6 6 6 5 5 5 5 5 5 5 5 5 5 5 5 6 6 6 5 6 6 6 6 6 7 8
3 3 3 4 3 3 4 4 4 4 4 4 5 5 5 5 6 6 6 6 5 5 6 5 5 5 5 5 5 4 5 5 6 6 6 5 5 6 6 6 6 6 7
3 4 4 4 3 3 4 4 4 4 5 5 5 4 5 5 6 5 6 6 6 5 5 5 5 5 5 5 5 5 5 6 5 5 5 6 5 5 5 6 6 7 8
4 4 4 4 3 3 3 3 4 4 5 5 5 5 5 5 5 5 6 5 5 5 5 5 5 5 5 5 5 6 6 6 6 6 6 6 6 5 5 5 6 6 6
4 4 5 4 3 3 4 4 4 4 5 5 5 5 5 5 5 5 5 5 5 5 5 5 5 5 5 5 5 6 6 6 6 6 6 6 5 6 6 5 6 6 6
4 4 5 5 4 4 4 4 4 5 5 5 5 5 5 5 5 5 5 5 5 5 5 5 5 5 5 5 5 6 6 6 6 6 6 6 6 6 5 6 5 5 5
4 4 5 5 5 5 4 5 5 5 5 5 5 5 5 5 5 5 4 5 5 5 5 5 5 5 5 5 5 5 5 5 5 6 6 6 6 6 6 5 5 5 5
5 5 5 5 5 5 5 5 5 5 5 5 4 4 4 4 4 4 5 5 5 5 5 5 5 4 4 4 4 4 5 5 5 5 5 5 5 6 6 5 5 5 4
6 5 5 5 5 5 6 6 5 5 5 4 4 4 4 4 4 4 5 5 5 5 5 4 4 4 3 4 4 4 5 5 5 5 5 5 5 5 6 7 6 6 5
6 5 5 5 5 5 5 5 6 5 5 4 4 3 3 4 4 4 4 5 5 5 5 4 4 5 4 4 3 4 4 4 4 4 4 4 4 4 5 5 5 5 6
6 6 5 5 5 5 5 5 5 4 4 4 3 3 3 3 4 4 4 4 4 4 4 5 5 5 4 4 4 4 4 4 4 4 4 4 4 4 5 4 4 5 4
6 5 5 5 5 5 4 4 4 4 4 4 3 3 3 3 4 4 4 4 4 4 4 5 5 5 5 4 4 4 3 3 4 4 4 4 4 4 5 4 4 5 4
4 4 4 4 4 4 3 3 4 4 4 4 3 3 3 3 3 4 4 4 4 4 4 5 5 5 5 5 4 4 3 3 3 3 3 4 4 4 4 4 4 4 4
4 3 3 3 3 3 3 3 4 4 4 4 3 3 3 3 3 3 3 4 4 4 4 5 5 4 5 5 5 5 3 3 3 3 3 3 3 4 5 4 3 4 4
4 3 3 3 3 3 3 3 4 4 4 3 3 3 3 3 3 3 3 3 3 3 4 4 5 4 4 4 4 5 5 4 3 3 2 2 3 4 4 3 3 3 3
3 3 3 3 3 3 3 4 4 4 3 2 2 3 3 3 3 3 3 3 3 3 3 3 4 4 4 4 5 5 5 5 3 3 3 3 3 3 3 3 3 2 1
3 3 3 3 3 3 3 4 4 3 2 2 3 2 2 2 3 2 2 2 2 3 3 3 4 4 4 4 4 3 3 4 3 3 2 2 2 2 2 2 2 2 2
3 3 3 3 4 4 4 3 3 2 2 2 2 2 2 2 2 2 3 3 3 3 4 4 3 4 4 5 7 5 4 3 3 2 2 1 1 2 2 1 2 2 2
3 3 3 3 4 4 4 3 2 2 2 2 2 2 2 2 1 2 3 3 3 5 6 6 5 4 5 7 7 6 6 6 4 2 1 1 1 1 2 2 2 2 2
Wind_Direction
271 304 346 341 308 297 305 308 311 296 285 272 270 269 270 275 274 273 272 275 277 273 264 259 257 262 257 257 255 258 257 261 267 275 278 271 256 251 254 255 258 258 257
270 293 319 333 314 311 306 299 297 304 292 273 266 267 270 271 271 277 269 266 270 273 263 257 255 257 262 259 253 254 256 255 246 256 271 276 265 247 253 252 255 258 258
272 278 292 304 311 307 301 294 291 290 296 299 280 270 257 267 268 279 280 270 266 268 267 258 257 254 249 250 252 246 248 248 247 244 249 262 265 292 260 255 253 254 257
296 296 289 294 295 297 296 290 291 293 294 291 275 260 259 268 271 276 276 280 271 267 265 256 257 253 247 248 252 253 251 242 245 251 258 262 271 268 275 257 254 259 262
298 301 300 296 300 305 303 301 297 297 296 286 271 267 267 273 276 274 275 280 278 269 264 257 256 254 250 250 250 253 252 248 248 251 259 260 260 254 257 269 271 270 267
308 314 315 311 317 324 316 311 302 301 301 288 277 272 275 279 277 276 277 279 280 276 267 261 259 255 253 251 250 249 249 252 252 252 249 252 255 253 254 264 270 273 274
316 329 326 321 326 326 320 307 300 298 298 290 284 279 279 280 276 275 274 275 274 273 266 262 261 259 256 255 254 251 250 250 253 253 254 254 257 259 261 265 273 280 283
328 329 322 313 314 318 316 308 300 298 296 292 291 287 285 280 279 275 273 270 269 268 266 262 260 262 261 260 256 253 253 250 251 255 256 261 261 261 257 259 267 278 280
324 323 316 312 313 318 315 307 300 299 301 298 294 287 285 282 280 278 276 273 273 274 265 263 263 264 262 257 256 255 255 254 252 253 256 259 262 262 263 260 255 256 271
311 320 318 314 308 310 310 306 299 296 298 298 294 289 285 281 281 280 279 280 279 275 269 265 264 264 261 258 255 258 260 261 259 254 254 259 264 267 263 262 264 260 258
308 315 317 317 307 311 312 306 300 299 300 297 291 287 285 284 284 282 283 283 280 277 271 265 266 268 267 261 256 256 260 259 261 259 254 258 264 265 265 263 264 261 257
309 314 318 320 322 313 312 310 303 301 302 300 293 289 288 287 286 288 289 290 287 285 277 268 265 266 266 262 258 257 258 255 258 262 261 263 264 263 263 261 263 261 255
311 319 322 325 328 327 316 307 305 306 307 303 297 294 293 293 293 296 298 295 290 288 284 273 266 265 264 261 260 259 261 261 259 261 260 264 265 265 268 266 263 263 261
301 309 317 321 325 328 323 318 317 314 309 305 302 302 305 304 300 301 302 299 294 290 288 286 273 264 261 259 261 264 264 264 265 264 262 261 261 267 272 273 271 269 266
296 299 307 313 319 323 324 322 319 319 316 311 307 305 307 306 306 309 308 305 301 298 293 295 287 270 262 260 265 268 266 267 270 270 267 265 267 275 276 275 276 273 268
293 296 304 309 312 314 316 318 317 315 312 308 306 309 311 313 313 312 311 310 308 307 303 296 293 283 271 277 271 273 269 269 267 271 275 275 273 278 276 278 278 277 266
290 294 297 298 303 305 307 308 311 314 311 309 311 314 316 317 315 314 314 311 310 313 312 304 300 292 287 287 276 287 279 272 264 264 271 277 281 282 272 276 279 280 283
289 292 294 296 299 301 304 305 307 309 308 307 310 313 315 313 314 314 314 313 313 315 316 315 309 301 297 300 289 291 276 274 277 278 275 275 276 277 280 282 286 283 282
286 289 288 287 292 298 304 305 305 306 302 302 306 310 310 309 313 315 315 315 315 315 316 313 315 312 309 312 303 294 281 275 278 278 278 276 276 285 292 284 283 287 294
290 293 294 291 291 299 304 300 303 306 302 303 303 303 301 299 302 305 309 312 312 312 316 318 321 318 312 317 318 308 282 278 278 279 278 278 282 291 292 279 276 279 294
291 294 291 286 289 297 293 289 296 301 304 307 306 305 300 299 299 303 306 312 315 316 320 320 323 322 318 316 322 321 303 289 283 282 284 287 298 294 294 296 292 296 299
292 291 291 291 297 298 286 285 293 302 306 305 304 305 307 307 305 306 309 314 314 314 319 320 325 328 325 323 323 328 326 317 296 292 300 305 310 305 309 315 331 330 319
280 283 279 287 298 299 283 279 293 301 301 302 303 306 309 310 310 309 311 317 316 310 315 320 324 327 328 328 331 328 328 323 311 304 315 320 323 321 325 347 351 336 325
270 274 277 285 296 300 292 283 290 286 286 295 304 308 310 316 321 318 317 317 316 312 314 318 320 323 324 326 327 323 324 329 325 316 323 334 346 341 336 344 345 335 323
265 262 267 276 289 298 296 295 291 277 279 291 300 307 307 310 321 328 329 318 315 310 310 312 316 316 316 327 336 335 329 328 326 323 320 338 348 355 354 349 340 333 327
262 267 273 281 292 298 296 298 287 265 261 282 299 301 299 308 322 333 344 354 336 341 337 330 328 324 326 332 338 342 341 339 337 331 321 329 330 335 334 329 329 331 328
Height
1483 1483 1482 1482 1482 1482 1482 1482 1482 1482 1482 1482 1482 1482 1481 1481 1481 1481 1481 1480 1480 1480 1479 1479 1479 1479 1479 1478 1478 1478 1478 1478 1478 1478 1477 1476 1475 1475 1475 1474 1474 1474 1474
1481 1480 1480 1479 1479 1479 1479 1479 1479 1479 1479 1478 1478 1478 1478 1478 1477 1477 1477 1476 1476 1475 1475 1475 1475 1475 1475 1474 1474 1474 1473 1473 1474 1474 1473 1472 1472 1470 1469 1469 1469 1469 1469
1478 1477 1477 1476 1476 1476 1476 1476 1475 1475 1475 1474 1474 1474 1474 1474 1473 1473 1472 1472 1472 1471 1471 1471 1471 1471 1471 1470 1470 1469 1469 1469 1470 1470 1471 1470 1467 1465 1464 1463 1464 1464 1464
1476 1475 1474 1473 1473 1473 1473 1473 1472 1472 1472 1471 1471 1470 1470 1470 1469 1469 1468 1468 1468 1467 1467 1467 1466 1466 1466 1466 1466 1465 1465 1465 1465 1465 1466 1467 1465 1464 1460 1459 1459 1459 1459
1474 1473 1471 1471 1470 1470 1469 1469 1469 1469 1469 1468 1468 1467 1466 1466 1466 1465 1465 1464 1464 1463 1463 1462 1462 1462 1462 1462 1461 1461 1461 1461 1461 1460 1461 1461 1461 1460 1458 1455 1453 1453 1453
1472 1470 1469 1469 1468 1467 1466 1466 1466 1465 1465 1465 1464 1464 1463 1463 1462 1462 1461 1460 1460 1459 1459 1458 1458 1458 1457 1457 1457 1457 1457 1457 1456 1456 1456 1456 1456 1455 1455 1452 1449 1448 1447
1470 1468 1467 1466 1465 1464 1464 1463 1463 1462 1462 1462 1461 1461 1460 1459 1458 1458 1457 1457 1456 1455 1455 1454 1454 1454 1453 1453 1453 1453 1452 1452 1452 1452 1452 1452 1451 1451 1451 1449 1446 1444 1442
1469 1467 1466 1464 1463 1462 1462 1461 1460 1460 1459 1458 1458 1457 1456 1456 1455 1454 1454 1453 1452 1451 1451 1450 1450 1450 1449 1448 1449 1448 1448 1447 1447 1447 1447 1446 1446 1446 1446 1445 1443 1440 1438
1467 1466 1464 1463 1461 1460 1460 1459 1458 1457 1456 1456 1455 1454 1453 1452 1452 1451 1450 1449 1448 1447 1447 1446 1446 1445 1445 1444 1444 1443 1443 1443 1442 1442 1441 1441 1441 1440 1440 1440 1439 1439 1435
1465 1464 1462 1461 1459 1458 1457 1456 1455 1454 1454 1453 1452 1451 1450 1449 1448 1447 1446 1445 1444 1443 1442 1441 1441 1441 1440 1440 1439 1439 1439 1438 1437 1437 1436 1436 1436 1435 1435 1435 1434 1434 1432
1464 1462 1461 1459 1457 1456 1455 1454 1453 1452 1451 1449 1448 1447 1446 1445 1444 1443 1442 1441 1440 1438 1437 1437 1436 1436 1435 1435 1435 1434 1434 1433 1432 1432 1431 1431 1431 1430 1430 1429 1429 1428 1427
1463 1461 1459 1457 1456 1454 1453 1452 1450 1449 1448 1446 1445 1444 1443 1441 1440 1439 1438 1437 1435 1435 1434 1433 1432 1431 1431 1430 1430 1429 1429 1428 1427 1427 1427 1426 1426 1425 1425 1424 1423 1422 1422
1461 1459 1457 1455 1454 1452 1451 1449 1448 1446 1445 1443 1442 1441 1439 1438 1437 1435 1434 1433 1432 1431 1430 1429 1428 1427 1426 1426 1425 1425 1424 1424 1423 1423 1422 1422 1421 1420 1420 1419 1418 1418 1417
1459 1457 1455 1453 1452 1450 1448 1447 1445 1443 1442 1440 1439 1437 1436 1435 1434 1432 1431 1430 1428 1427 1426 1425 1424 1423 1422 1421 1421 1420 1420 1419 1419 1419 1418 1417 1417 1417 1416 1415 1415 1414 1413
1457 1455 1453 1451 1449 1448 1446 1445 1443 1441 1439 1437 1436 1434 1433 1432 1430 1429 1428 1426 1425 1423 1422 1421 1420 1419 1418 1417 1416 1416 1416 1415 1415 1414 1414 1413 1413 1413 1412 1412 1411 1410 1409
1454 1452 1451 1449 1447 1445 1444 1442 1440 1439 1437 1435 1433 1432 1430 1429 1427 1426 1424 1423 1421 1420 1419 1417 1416 1415 1414 1413 1413 1413 1412 1411 1411 1410 1410 1409 1409 1409 1409 1408 1408 1407 1407
1451 1450 1448 1446 1445 1443 1441 1439 1438 1436 1434 1432 1430 1429 1427 1426 1424 1423 1421 1420 1418 1417 1415 1414 1413 1412 1411 1410 1409 1409 1409 1408 1407 1407 1406 1405 1405 1405 1405 1405 1404 1404 1403
1448 1447 1445 1443 1442 1440 1439 1437 1435 1434 1432 1430 1428 1427 1425 1423 1422 1420 1419 1417 1416 1414 1413 1411 1410 1409 1407 1407 1406 1406 1405 1405 1404 1403 1403 1402 1402 1402 1402 1401 1400 1400 1399
1446 1444 1442 1441 1439 1438 1436 1434 1433 1431 1429 1428 1426 1424 1423 1421 1419 1418 1416 1415 1414 1412 1411 1409 1407 1406 1404 1404 1403 1403 1402 1401 1400 1400 1400 1399 1399 1398 1398 1398 1397 1396 1396
1443 1441 1439 1438 1436 1435 1434 1432 1430 1429 1427 1425 1423 1422 1420 1418 1417 1416 1414 1413 1411 1410 1408 1406 1405 1403 1402 1401 1400 1400 1399 1398 1397 1397 1397 1396 1396 1395 1395 1395 1394 1393 1393
1440 1438 1437 1435 1434 1433 1431 1430 1428 1426 1425 1423 1421 1420 1418 1417 1415 1414 1412 1410 1409 1407 1406 1404 1403 1401 1400 1399 1398 1398 1397 1396 1395 1394 1393 1393 1393 1392 1392 1392 1391 1391 1390
1437 1435 1434 1432 1431 1430 1429 1427 1426 1424 1423 1421 1419 1417 1416 1415 1413 1412 1410 1409 1407 1405 1404 1402 1401 1400 1399 1397 1396 1396 1395 1394 1393 1392 1391 1391 1391 1390 1390 1389 1389 1389 1388
1434 1432 1431 1430 1429 1428 1426 1425 1423 1422 1420 1418 1417 1415 1414 1412 1411 1410 1408 1407 1405 1404 1402 1401 1399 1398 1397 1396 1395 1394 1393 1392 1391 1390 1389 1389 1389 1388 1388 1387 1387 1387 1387
1431 1429 1428 1427 1426 1425 1424 1422 1421 1419 1418 1416 1415 1413 1411 1410 1409 1408 1406 1405 1403 1402 1401 1399 1398 1396 1395 1395 1393 1392 1391 1390 1389 1389 1388 1388 1387 1387 1386 1386 1386 1385 1385
1428 1427 1426 1424 1423 1422 1421 1420 1418 1417 1415 1414 1413 1411 1410 1408 1407 1406 1405 1403 1402 1401 1400 1398 1397 1395 1394 1393 1392 1391 1390 1389 1388 1387 1387 1386 1386 1386 1385 1385 1385 1385 1384
1425 1424 1423 1422 1421 1419 1418 1417 1416 1415 1413 1412 1411 1410 1408 1407 1406 1404 1403 1402 1401 1400 1398 1397 1396 1394 1393 1392 1391 1390 1389 1388 1387 1386 1385 1385 1385 1385 1384 1384 1384 1383 1383